Location: C.E.K. Mees Observatory
(42.7003°N, 77.4088°W)
Time: 11:40:30
(UTC-04:00)

Tiangong 1 - Pass Details

Date: 16 October 2017
Orbit: 292 x 320 km, 42.8° (Epoch: 22 October)

Event Time Altitude Azimuth Distance (km) Brightness Sun altitude
Rises 18:50:44 0° 278° (W) 2,049 6.6 -5.5°
Reaches altitude 10° 18:52:50 10° 268° (W) 1,212 5.4 -5.8°
Maximum altitude 18:55:18 32° 202° (SSW) 562 2.2 -6.3°
Drops below altitude 10° 18:57:46 10° 136° (SE) 1,195 3.2 -6.7°
Enters shadow 18:59:05 - 128° (SE) 1,714 3.9 -7.0°
